Location: Sunset Hills
(34.4956°N, 117.2223°W)
Time: 10:02:08
(UTC+00:00)

Cosmos 1939 Rocket - Pass Details

Date: 03 August 2024
Orbit: 511 x 553 km, 97.5° (Epoch: 07 September)

Event Time Altitude Azimuth Distance (km) Brightness Sun altitude
Rises 12:23:36 0° 10° (N) 2,632 6.9 -7.9°
Reaches altitude 10° 12:25:41 10° 10° (N) 1,745 5.9 -7.5°
Maximum altitude 12:29:27 84° 283° (WNW) 526 2.7 -6.8°
Drops below altitude 10° 12:33:14 10° 195° (SSW) 1,752 5.0 -6.1°
Sets 12:35:20 0° 194° (SSW) 2,644 5.9 -5.7°
